Year,Month,Day,Hour,Minute,Value (Times are PST for windgust in km/hr)
2018,12,20,00,00,14.50
2018,12,20,00,01,4.80
2018,12,20,00,02,9.60
2018,12,20,00,03,8.10
2018,12,20,00,04,9.60
2018,12,20,00,05,22.50
2018,12,20,00,06,16.10
2018,12,20,00,07,6.40
2018,12,20,00,08,16.10
2018,12,20,00,09,9.60
2018,12,20,00,10,17.70
2018,12,20,00,11,11.30
2018,12,20,00,12,6.40
2018,12,20,00,13,8.10
2018,12,20,00,14,16.10
2018,12,20,00,15,8.10
2018,12,20,00,16,9.60
2018,12,20,00,17,14.50
2018,12,20,00,18,6.40
2018,12,20,00,19,17.70
2018,12,20,00,20,16.10
2018,12,20,00,21,9.60
2018,12,20,00,22,19.30
2018,12,20,00,23,16.10
2018,12,20,00,24,6.40
2018,12,20,00,25,11.30
2018,12,20,00,26,14.50
2018,12,20,00,27,20.90
2018,12,20,00,28,11.30
2018,12,20,00,29,11.30
2018,12,20,00,30,9.60
2018,12,20,00,31,14.50
2018,12,20,00,32,8.10
2018,12,20,00,33,6.40
2018,12,20,00,34,8.10
2018,12,20,00,35,17.70
2018,12,20,00,36,14.50
2018,12,20,00,37,24.20
2018,12,20,00,38,9.60
2018,12,20,00,39,19.30
2018,12,20,00,40,11.30
2018,12,20,00,41,25.70
2018,12,20,00,42,17.70
2018,12,20,00,43,16.10
2018,12,20,00,44,9.60
2018,12,20,00,45,8.10
2018,12,20,00,46,3.20
2018,12,20,00,47,9.60
2018,12,20,00,48,9.60
2018,12,20,00,49,8.10
2018,12,20,00,50,14.50
2018,12,20,00,51,16.10
2018,12,20,00,52,8.10
2018,12,20,00,53,16.10
2018,12,20,00,54,20.90
2018,12,20,00,55,9.60
2018,12,20,00,56,11.30
2018,12,20,00,57,8.10
2018,12,20,00,58,8.10
2018,12,20,00,59,22.50
2018,12,20,01,00,17.70
2018,12,20,01,01,1.60
2018,12,20,01,02,22.50
2018,12,20,01,03,11.30
2018,12,20,01,04,9.60
2018,12,20,01,05,4.80
2018,12,20,01,06,1.60
2018,12,20,01,07,1.60
2018,12,20,01,08,9.60
2018,12,20,01,09,11.30
2018,12,20,01,10,8.10
2018,12,20,01,11,8.10
2018,12,20,01,12,9.60
2018,12,20,01,13,1.60
2018,12,20,01,14,1.60
2018,12,20,01,15,6.40
2018,12,20,01,16,6.40
2018,12,20,01,17,4.80
2018,12,20,01,18,8.10
2018,12,20,01,19,9.60
2018,12,20,01,20,9.60
2018,12,20,01,21,4.80
2018,12,20,01,22,12.90
2018,12,20,01,23,11.30
2018,12,20,01,24,3.20
2018,12,20,01,26,1.60
2018,12,20,01,27,1.60
2018,12,20,01,34,11.30
2018,12,20,01,35,8.10
2018,12,20,01,36,11.30
2018,12,20,01,37,8.10
2018,12,20,01,38,4.80
2018,12,20,01,39,11.30
2018,12,20,01,40,9.60
2018,12,20,01,41,1.60
2018,12,20,01,42,9.60
2018,12,20,01,43,11.30
2018,12,20,01,44,12.90
2018,12,20,01,45,9.60
2018,12,20,01,46,6.40
2018,12,20,01,47,6.40
2018,12,20,01,48,1.60
2018,12,20,01,49,9.60
2018,12,20,01,50,9.60
2018,12,20,01,51,11.30
2018,12,20,01,52,14.50
2018,12,20,01,53,17.70
2018,12,20,01,54,17.70
2018,12,20,01,55,6.40
2018,12,20,01,56,9.60
2018,12,20,01,57,20.90
2018,12,20,01,58,9.60
2018,12,20,01,59,9.60
2018,12,20,02,00,19.30
2018,12,20,02,01,9.60
2018,12,20,02,02,11.30
2018,12,20,02,03,6.40
2018,12,20,02,04,16.10
2018,12,20,02,05,17.70
2018,12,20,02,06,11.30
2018,12,20,02,07,20.90
2018,12,20,02,08,20.90
2018,12,20,02,09,8.10
2018,12,20,02,10,9.60
2018,12,20,02,11,17.70
2018,12,20,02,12,19.30
2018,12,20,02,13,20.90
2018,12,20,02,14,14.50
2018,12,20,02,15,11.30
2018,12,20,02,16,11.30
2018,12,20,02,17,9.60
2018,12,20,02,18,11.30
2018,12,20,02,19,9.60
2018,12,20,02,20,16.10
2018,12,20,02,21,6.40
2018,12,20,02,22,8.10
2018,12,20,02,23,14.50
2018,12,20,02,24,24.20
2018,12,20,02,25,17.70
2018,12,20,02,26,14.50
2018,12,20,02,27,14.50
2018,12,20,02,28,6.40
2018,12,20,02,29,4.80
2018,12,20,02,30,3.20
2018,12,20,02,31,9.60
2018,12,20,02,32,14.50
2018,12,20,02,33,12.90
2018,12,20,02,34,4.80
2018,12,20,02,35,9.60
2018,12,20,02,36,9.60
2018,12,20,02,37,16.10
2018,12,20,02,38,14.50
2018,12,20,02,39,9.60
2018,12,20,02,40,9.60
2018,12,20,02,41,1.60
2018,12,20,02,42,8.10
2018,12,20,02,43,9.60
2018,12,20,02,44,16.10
2018,12,20,02,45,16.10
2018,12,20,02,46,8.10
2018,12,20,02,47,9.60
2018,12,20,02,48,14.50
2018,12,20,02,49,16.10
2018,12,20,02,50,14.50
2018,12,20,02,51,25.70
2018,12,20,02,52,9.60
2018,12,20,02,53,9.60
2018,12,20,02,54,9.60
2018,12,20,02,55,11.30
2018,12,20,02,56,6.40
2018,12,20,02,57,16.10
2018,12,20,02,58,20.90
2018,12,20,02,59,11.30
2018,12,20,03,00,9.60
2018,12,20,03,01,17.70
2018,12,20,03,02,9.60
2018,12,20,03,03,22.50
2018,12,20,03,04,9.60
2018,12,20,03,05,22.50
2018,12,20,03,06,22.50
2018,12,20,03,07,27.40
2018,12,20,03,08,20.90
2018,12,20,03,09,20.90
2018,12,20,03,10,14.50
2018,12,20,03,11,25.70
2018,12,20,03,12,20.90
2018,12,20,03,13,24.20
2018,12,20,03,14,19.30
2018,12,20,03,15,24.20
2018,12,20,03,16,22.50
2018,12,20,03,17,9.60
2018,12,20,03,18,16.10
2018,12,20,03,19,11.30
2018,12,20,03,20,22.50
2018,12,20,03,21,14.50
2018,12,20,03,22,24.20
2018,12,20,03,23,22.50
2018,12,20,03,24,8.10
2018,12,20,03,25,17.70
2018,12,20,03,26,16.10
2018,12,20,03,27,3.20
2018,12,20,03,28,17.70
2018,12,20,03,29,24.20
2018,12,20,03,30,22.50
2018,12,20,03,31,14.50
2018,12,20,03,32,11.30
2018,12,20,03,33,16.10
2018,12,20,03,34,17.70
2018,12,20,03,35,17.70
2018,12,20,03,36,17.70
2018,12,20,03,37,9.60
2018,12,20,03,38,11.30
2018,12,20,03,39,16.10
2018,12,20,03,40,9.60
2018,12,20,03,41,9.60
2018,12,20,03,42,20.90
2018,12,20,03,43,20.90
2018,12,20,03,44,12.90
2018,12,20,03,45,3.20
2018,12,20,03,46,1.60
2018,12,20,03,47,17.70
2018,12,20,03,48,20.90
2018,12,20,03,49,14.50
2018,12,20,03,50,9.60
2018,12,20,03,51,14.50
2018,12,20,03,52,11.30
2018,12,20,03,53,9.60
2018,12,20,03,54,9.60
2018,12,20,03,55,14.50
2018,12,20,03,56,20.90
2018,12,20,03,57,17.70
2018,12,20,03,58,19.30
2018,12,20,03,59,22.50
2018,12,20,04,00,25.70
2018,12,20,04,01,19.30
2018,12,20,04,02,25.70
2018,12,20,04,03,8.10
2018,12,20,04,04,14.50
2018,12,20,04,05,25.70
2018,12,20,04,06,27.40
2018,12,20,04,07,20.90
2018,12,20,04,08,17.70
2018,12,20,04,09,11.30
2018,12,20,04,10,20.90
2018,12,20,04,11,25.70
2018,12,20,04,12,24.20
2018,12,20,04,13,17.70
2018,12,20,04,14,16.10
2018,12,20,04,15,11.30
2018,12,20,04,16,14.50
2018,12,20,04,17,12.90
2018,12,20,04,18,14.50
2018,12,20,04,19,19.30
2018,12,20,04,20,11.30
2018,12,20,04,21,8.10
2018,12,20,04,22,14.50
2018,12,20,04,23,14.50
2018,12,20,04,24,16.10
2018,12,20,04,25,25.70
2018,12,20,04,26,16.10
2018,12,20,04,27,14.50
2018,12,20,04,28,20.90
2018,12,20,04,29,14.50
2018,12,20,04,30,8.10
2018,12,20,04,31,17.70
2018,12,20,04,32,11.30
2018,12,20,04,33,9.60
2018,12,20,04,34,4.80
2018,12,20,04,35,6.40
2018,12,20,04,36,6.40
2018,12,20,04,37,8.10
2018,12,20,04,38,14.50
2018,12,20,04,39,9.60
2018,12,20,04,40,9.60
2018,12,20,04,41,9.60
2018,12,20,04,42,3.20
2018,12,20,04,43,6.40
2018,12,20,04,44,6.40
2018,12,20,04,45,3.20
2018,12,20,04,46,6.40
2018,12,20,04,47,11.30
2018,12,20,04,48,9.60
2018,12,20,04,49,6.40
2018,12,20,04,50,8.10
2018,12,20,04,51,6.40
2018,12,20,04,52,9.60
2018,12,20,04,53,6.40
2018,12,20,04,54,16.10
2018,12,20,04,55,9.60
2018,12,20,04,56,8.10
2018,12,20,04,57,9.60
2018,12,20,04,58,9.60
2018,12,20,04,59,8.10
2018,12,20,05,00,11.30
2018,12,20,05,01,9.60
2018,12,20,05,02,14.50
2018,12,20,05,03,1.60
2018,12,20,05,04,6.40
2018,12,20,05,05,4.80
2018,12,20,05,06,8.10
2018,12,20,05,07,6.40
2018,12,20,05,08,9.60
2018,12,20,05,09,9.60
2018,12,20,05,10,11.30
2018,12,20,05,11,14.50
2018,12,20,05,12,14.50
2018,12,20,05,13,12.90
2018,12,20,05,14,14.50
2018,12,20,05,15,14.50
2018,12,20,05,16,11.30
2018,12,20,05,17,16.10
2018,12,20,05,18,20.90
2018,12,20,05,19,17.70
2018,12,20,05,20,11.30
2018,12,20,05,21,8.10
2018,12,20,05,22,9.60
2018,12,20,05,23,17.70
2018,12,20,05,24,9.60
2018,12,20,05,25,11.30
2018,12,20,05,26,16.10
2018,12,20,05,27,19.30
2018,12,20,05,28,16.10
2018,12,20,05,29,14.50
2018,12,20,05,30,14.50
2018,12,20,05,31,11.30
2018,12,20,05,32,19.30
2018,12,20,05,33,16.10
2018,12,20,05,34,24.20
2018,12,20,05,35,20.90
2018,12,20,05,36,12.90
2018,12,20,05,37,17.70
2018,12,20,05,38,11.30
2018,12,20,05,39,20.90
2018,12,20,05,40,22.50
2018,12,20,05,41,19.30
2018,12,20,05,42,14.50
2018,12,20,05,43,32.20
2018,12,20,05,44,20.90
2018,12,20,05,45,22.50
2018,12,20,05,46,22.50
2018,12,20,05,47,25.70
2018,12,20,05,48,30.60
2018,12,20,05,49,30.60
2018,12,20,05,50,27.40
2018,12,20,05,51,19.30
2018,12,20,05,52,19.30
2018,12,20,05,53,29.00
2018,12,20,05,54,29.00
2018,12,20,05,55,27.40
2018,12,20,05,56,24.20
2018,12,20,05,57,22.50
2018,12,20,05,58,19.30
2018,12,20,05,59,29.00
2018,12,20,06,00,27.40
2018,12,20,06,01,30.60
2018,12,20,06,02,25.70
2018,12,20,06,03,30.60
2018,12,20,06,04,24.20
2018,12,20,06,05,29.00
2018,12,20,06,06,20.90
2018,12,20,06,07,32.20
2018,12,20,06,08,24.20
2018,12,20,06,09,24.20
2018,12,20,06,10,25.70
2018,12,20,06,11,25.70
2018,12,20,06,12,27.40
2018,12,20,06,13,20.90
2018,12,20,06,14,20.90
2018,12,20,06,15,35.40
2018,12,20,06,16,38.60
2018,12,20,06,17,35.40
2018,12,20,06,18,27.40
2018,12,20,06,19,20.90
2018,12,20,06,20,24.20
2018,12,20,06,21,22.50
2018,12,20,06,22,29.00
2018,12,20,06,23,25.70
2018,12,20,06,24,22.50
2018,12,20,06,25,19.30
2018,12,20,06,26,40.20
2018,12,20,06,27,25.70
2018,12,20,06,28,29.00
2018,12,20,06,29,29.00
2018,12,20,06,30,33.80
2018,12,20,06,31,27.40
2018,12,20,06,32,30.60
2018,12,20,06,33,33.80
2018,12,20,06,34,35.40
2018,12,20,06,35,32.20
2018,12,20,06,36,25.70
2018,12,20,06,37,37.00
2018,12,20,06,38,30.60
2018,12,20,06,39,29.00
2018,12,20,06,40,33.80
2018,12,20,06,41,37.00
2018,12,20,06,42,37.00
2018,12,20,06,43,40.20
2018,12,20,06,44,35.40
2018,12,20,06,45,29.00
2018,12,20,06,46,27.40
2018,12,20,06,47,19.30
2018,12,20,06,48,32.20
2018,12,20,06,49,29.00
2018,12,20,06,50,37.00
2018,12,20,06,51,41.80
2018,12,20,06,52,43.50
2018,12,20,06,53,29.00
2018,12,20,06,54,29.00
2018,12,20,06,55,29.00
2018,12,20,06,56,32.20
2018,12,20,06,57,33.80
2018,12,20,06,58,25.70
2018,12,20,06,59,30.60
2018,12,20,07,00,29.00
2018,12,20,07,01,35.40
2018,12,20,07,02,32.20
2018,12,20,07,03,24.20
2018,12,20,07,04,37.00
2018,12,20,07,05,22.50
2018,12,20,07,06,20.90
2018,12,20,07,07,32.20
2018,12,20,07,08,33.80
2018,12,20,07,09,29.00
2018,12,20,07,10,20.90
2018,12,20,07,11,27.40
2018,12,20,07,12,33.80
2018,12,20,07,13,41.80
2018,12,20,07,14,29.00
2018,12,20,07,15,27.40
2018,12,20,07,16,48.30
2018,12,20,07,17,22.50
2018,12,20,07,18,25.70
2018,12,20,07,19,37.00
2018,12,20,07,20,25.70
2018,12,20,07,21,27.40
2018,12,20,07,22,33.80
2018,12,20,07,23,35.40
2018,12,20,07,24,32.20
2018,12,20,07,25,32.20
2018,12,20,07,26,25.70
2018,12,20,07,27,32.20
2018,12,20,07,28,33.80
2018,12,20,07,29,27.40
2018,12,20,07,30,30.60
2018,12,20,07,31,25.70
2018,12,20,07,32,24.20
2018,12,20,07,33,27.40
2018,12,20,07,34,33.80
2018,12,20,07,35,35.40
2018,12,20,07,36,20.90
2018,12,20,07,37,27.40
2018,12,20,07,38,32.20
2018,12,20,07,39,27.40
2018,12,20,07,40,32.20
2018,12,20,07,41,29.00
2018,12,20,07,42,24.20
2018,12,20,07,43,32.20
2018,12,20,07,44,19.30
2018,12,20,07,45,19.30
2018,12,20,07,46,16.10
2018,12,20,07,47,22.50
2018,12,20,07,48,29.00
2018,12,20,07,49,22.50
2018,12,20,07,50,20.90
2018,12,20,07,51,24.20
2018,12,20,07,52,27.40
2018,12,20,07,53,25.70
2018,12,20,07,54,27.40
2018,12,20,07,55,27.40
2018,12,20,07,56,20.90
2018,12,20,07,57,24.20
2018,12,20,07,58,20.90
2018,12,20,07,59,27.40
2018,12,20,08,00,29.00
2018,12,20,08,01,22.50
2018,12,20,08,02,24.20
2018,12,20,08,03,32.20
2018,12,20,08,04,17.70
2018,12,20,08,05,20.90
2018,12,20,08,06,16.10
2018,12,20,08,07,19.30
2018,12,20,08,08,22.50
2018,12,20,08,09,17.70
2018,12,20,08,10,25.70
2018,12,20,08,11,24.20
2018,12,20,08,12,20.90
2018,12,20,08,13,17.70
2018,12,20,08,14,17.70
2018,12,20,08,15,22.50
2018,12,20,08,16,25.70
2018,12,20,08,17,17.70
2018,12,20,08,18,25.70
2018,12,20,08,19,11.30
2018,12,20,08,20,17.70
2018,12,20,08,21,11.30
2018,12,20,08,22,29.00
2018,12,20,08,23,24.20
2018,12,20,08,24,20.90
2018,12,20,08,25,20.90
2018,12,20,08,26,24.20
2018,12,20,08,27,20.90
2018,12,20,08,28,17.70
2018,12,20,08,29,16.10
2018,12,20,08,30,19.30
2018,12,20,08,31,16.10
2018,12,20,08,32,20.90
2018,12,20,08,33,22.50
2018,12,20,08,34,16.10
2018,12,20,08,35,17.70
2018,12,20,08,36,29.00
2018,12,20,08,37,24.20
2018,12,20,08,38,20.90
2018,12,20,08,39,25.70
2018,12,20,08,40,27.40
2018,12,20,08,41,29.00
2018,12,20,08,42,22.50
2018,12,20,08,43,22.50
2018,12,20,08,44,19.30
2018,12,20,08,45,38.60
2018,12,20,08,46,24.20
2018,12,20,08,47,22.50
2018,12,20,08,48,20.90
2018,12,20,08,49,24.20
2018,12,20,08,50,24.20
2018,12,20,08,51,19.30
2018,12,20,08,52,19.30
2018,12,20,08,53,22.50
2018,12,20,08,54,29.00
2018,12,20,08,55,12.90
2018,12,20,08,56,30.60
2018,12,20,08,57,30.60
2018,12,20,08,58,19.30
2018,12,20,08,59,19.30
2018,12,20,09,00,29.00
2018,12,20,09,01,20.90
2018,12,20,09,02,19.30
2018,12,20,09,03,16.10
2018,12,20,09,04,24.20
2018,12,20,09,05,20.90
2018,12,20,09,06,27.40
2018,12,20,09,07,16.10
2018,12,20,09,08,14.50
2018,12,20,09,09,24.20
2018,12,20,09,10,16.10
2018,12,20,09,11,19.30
2018,12,20,09,12,30.60
2018,12,20,09,13,16.10
2018,12,20,09,14,19.30
2018,12,20,09,15,20.90
2018,12,20,09,16,20.90
2018,12,20,09,17,17.70
2018,12,20,09,18,20.90
2018,12,20,09,19,17.70
2018,12,20,09,20,17.70
2018,12,20,09,21,14.50
2018,12,20,09,22,11.30
2018,12,20,09,23,16.10
2018,12,20,09,24,9.60
2018,12,20,09,25,6.40
2018,12,20,09,26,6.40
2018,12,20,09,27,1.60
2018,12,20,09,28,6.40
2018,12,20,09,29,6.40
2018,12,20,09,30,6.40
2018,12,20,09,31,3.20
2018,12,20,09,32,3.20
2018,12,20,09,33,3.20
2018,12,20,09,34,3.20
2018,12,20,09,35,8.10
2018,12,20,09,36,4.80
2018,12,20,09,37,3.20
2018,12,20,09,38,6.40
2018,12,20,09,39,6.40
2018,12,20,09,40,4.80
2018,12,20,09,41,6.40
2018,12,20,09,42,16.10
2018,12,20,09,43,9.60
2018,12,20,09,44,4.80
2018,12,20,09,45,14.50
2018,12,20,09,46,11.30
2018,12,20,09,47,8.10
2018,12,20,09,48,20.90
2018,12,20,09,49,17.70
2018,12,20,09,50,16.10
2018,12,20,09,51,19.30
2018,12,20,09,52,16.10
2018,12,20,09,53,20.90
2018,12,20,09,54,19.30
2018,12,20,09,55,16.10
2018,12,20,09,56,12.90
2018,12,20,09,57,20.90
2018,12,20,09,58,17.70
2018,12,20,09,59,19.30
2018,12,20,10,00,19.30
2018,12,20,10,01,19.30
2018,12,20,10,02,16.10
2018,12,20,10,03,19.30
2018,12,20,10,04,19.30
2018,12,20,10,05,14.50
2018,12,20,10,06,22.50
2018,12,20,10,07,16.10
2018,12,20,10,08,20.90
2018,12,20,10,09,16.10
2018,12,20,10,10,16.10
2018,12,20,10,11,11.30
2018,12,20,10,12,16.10
2018,12,20,10,13,11.30
2018,12,20,10,14,8.10
2018,12,20,10,15,12.90
2018,12,20,10,16,12.90
2018,12,20,10,17,19.30
2018,12,20,10,18,16.10
2018,12,20,10,19,16.10
2018,12,20,10,20,16.10
2018,12,20,10,21,12.90
2018,12,20,10,22,11.30
2018,12,20,10,23,14.50
2018,12,20,10,24,17.70
2018,12,20,10,25,17.70
2018,12,20,10,26,14.50
2018,12,20,10,27,14.50
2018,12,20,10,28,11.30
2018,12,20,10,29,8.10
2018,12,20,10,30,9.60
2018,12,20,10,31,9.60
2018,12,20,10,32,8.10
2018,12,20,10,33,9.60
2018,12,20,10,34,6.40
2018,12,20,10,35,8.10
2018,12,20,10,36,14.50
2018,12,20,10,37,9.60
2018,12,20,10,38,14.50
2018,12,20,10,39,11.30
2018,12,20,10,40,14.50
2018,12,20,10,41,14.50
2018,12,20,10,42,16.10
2018,12,20,10,43,14.50
2018,12,20,10,44,17.70
2018,12,20,10,45,17.70
2018,12,20,10,46,11.30
2018,12,20,10,47,11.30
2018,12,20,10,48,14.50
2018,12,20,10,49,14.50
2018,12,20,10,50,14.50
2018,12,20,10,51,9.60
2018,12,20,10,52,16.10
2018,12,20,10,53,19.30
2018,12,20,10,54,19.30
2018,12,20,10,55,19.30
2018,12,20,10,56,19.30
2018,12,20,10,57,29.00
2018,12,20,10,58,19.30
2018,12,20,10,59,30.60
2018,12,20,11,00,32.20
2018,12,20,11,01,25.70
2018,12,20,11,02,35.40
2018,12,20,11,03,25.70
2018,12,20,11,04,30.60
2018,12,20,11,05,38.60
2018,12,20,11,06,33.80
2018,12,20,11,07,41.80
2018,12,20,11,08,49.90
2018,12,20,11,09,64.40
2018,12,20,11,10,54.70
2018,12,20,11,11,46.70
2018,12,20,11,12,53.10
2018,12,20,11,13,57.90
2018,12,20,11,14,53.10
2018,12,20,11,15,53.10
2018,12,20,11,16,46.70
2018,12,20,11,17,35.40
2018,12,20,11,18,37.00
2018,12,20,11,19,43.50
2018,12,20,11,20,32.20
2018,12,20,11,21,45.10
2018,12,20,11,22,49.90
2018,12,20,11,23,40.20
2018,12,20,11,24,43.50
2018,12,20,11,25,53.10
2018,12,20,11,26,41.80
2018,12,20,11,27,51.50
2018,12,20,11,28,38.60
2018,12,20,11,29,51.50
2018,12,20,11,30,48.30
2018,12,20,11,31,46.70
2018,12,20,11,32,56.30
2018,12,20,11,33,48.30
2018,12,20,11,34,62.70
2018,12,20,11,35,53.10
2018,12,20,11,36,62.70
2018,12,20,11,37,51.50
2018,12,20,11,38,38.60
2018,12,20,11,39,48.30
2018,12,20,11,40,61.20
2018,12,20,11,41,74.00
2018,12,20,11,42,62.70
2018,12,20,11,43,56.30
2018,12,20,11,44,46.70
2018,12,20,11,45,53.10
2018,12,20,11,46,54.70
2018,12,20,11,47,41.80
2018,12,20,11,48,45.10
2018,12,20,11,49,48.30
2018,12,20,11,50,43.50
2018,12,20,11,51,53.10
2018,12,20,11,52,53.10
2018,12,20,11,53,51.50
2018,12,20,11,54,53.10
2018,12,20,11,55,41.80
2018,12,20,11,56,41.80
2018,12,20,11,57,45.10
2018,12,20,11,58,53.10
2018,12,20,11,59,61.20
2018,12,20,12,00,61.20
2018,12,20,12,01,54.70
2018,12,20,12,02,54.70
2018,12,20,12,03,45.10
2018,12,20,12,04,49.90
2018,12,20,12,05,45.10
2018,12,20,12,06,51.50
2018,12,20,12,07,59.50
2018,12,20,12,08,64.40
2018,12,20,12,09,51.50
2018,12,20,12,10,59.50
2018,12,20,12,11,59.50
2018,12,20,12,12,51.50
2018,12,20,12,13,53.10
2018,12,20,12,14,56.30
2018,12,20,12,15,40.20
2018,12,20,12,16,57.90
2018,12,20,12,17,45.10
2018,12,20,12,18,54.70
2018,12,20,12,19,67.60
2018,12,20,12,20,56.30
2018,12,20,12,21,64.40
2018,12,20,12,22,59.50
2018,12,20,12,23,67.60
2018,12,20,12,24,54.70
2018,12,20,12,25,64.40
2018,12,20,12,26,61.20
2018,12,20,12,27,48.30
2018,12,20,12,28,49.90
2018,12,20,12,29,56.30
2018,12,20,12,30,62.70
2018,12,20,12,31,54.70
2018,12,20,12,32,53.10
2018,12,20,12,33,62.70
2018,12,20,12,34,62.70
2018,12,20,12,35,67.60
2018,12,20,12,36,53.10
2018,12,20,12,37,33.80
2018,12,20,12,38,46.70
2018,12,20,12,39,61.20
2018,12,20,12,40,48.30
2018,12,20,12,41,45.10
2018,12,20,12,42,48.30
2018,12,20,12,43,56.30
2018,12,20,12,44,49.90
2018,12,20,12,45,69.20
2018,12,20,12,46,64.40
2018,12,20,12,47,69.20
2018,12,20,12,48,62.70
2018,12,20,12,49,45.10
2018,12,20,12,50,53.10
2018,12,20,12,51,51.50
2018,12,20,12,52,53.10
2018,12,20,12,53,46.70
2018,12,20,12,54,51.50
2018,12,20,12,55,46.70
2018,12,20,12,56,62.70
2018,12,20,12,57,40.20
2018,12,20,12,58,53.10
2018,12,20,12,59,56.30
2018,12,20,13,00,53.10
2018,12,20,13,01,49.90
2018,12,20,13,02,35.40
2018,12,20,13,03,48.30
2018,12,20,13,04,43.50
2018,12,20,13,05,51.50
2018,12,20,13,06,48.30
2018,12,20,13,07,40.20
2018,12,20,13,08,51.50
2018,12,20,13,09,41.80
2018,12,20,13,10,32.20
2018,12,20,13,11,62.70
2018,12,20,13,12,64.40
2018,12,20,13,13,43.50
2018,12,20,13,14,69.20
2018,12,20,13,15,43.50
2018,12,20,13,16,54.70
2018,12,20,13,17,51.50
2018,12,20,13,18,56.30
2018,12,20,13,19,61.20
2018,12,20,13,20,38.60
2018,12,20,13,21,48.30
2018,12,20,13,22,45.10
2018,12,20,13,23,45.10
2018,12,20,13,24,46.70
2018,12,20,13,25,48.30
2018,12,20,13,26,41.80
2018,12,20,13,27,61.20
2018,12,20,13,28,57.90
2018,12,20,13,29,57.90
2018,12,20,13,30,53.10
2018,12,20,13,31,48.30
2018,12,20,13,32,45.10
2018,12,20,13,33,54.70
2018,12,20,13,34,54.70
2018,12,20,13,35,48.30
2018,12,20,13,36,46.70
2018,12,20,13,37,30.60
2018,12,20,13,38,46.70
2018,12,20,13,39,51.50
2018,12,20,13,40,43.50
2018,12,20,13,41,46.70
2018,12,20,13,42,62.70
2018,12,20,13,43,56.30
2018,12,20,13,44,53.10
2018,12,20,13,45,57.90
2018,12,20,13,46,46.70
2018,12,20,13,47,62.70
2018,12,20,13,48,59.50
2018,12,20,13,49,53.10
2018,12,20,13,50,67.60
2018,12,20,13,51,62.70
2018,12,20,13,52,64.40
2018,12,20,13,53,57.90
2018,12,20,13,54,61.20
2018,12,20,13,55,59.50
2018,12,20,13,56,66.00
2018,12,20,13,57,59.50
2018,12,20,13,58,74.00
2018,12,20,13,59,53.10
2018,12,20,14,00,53.10
2018,12,20,14,01,53.10
2018,12,20,14,02,57.90
2018,12,20,14,03,67.60
2018,12,20,14,04,69.20
2018,12,20,14,05,57.90
2018,12,20,14,06,53.10
2018,12,20,14,07,53.10
2018,12,20,14,08,57.90
2018,12,20,14,09,49.90
2018,12,20,14,10,43.50
2018,12,20,14,11,54.70
2018,12,20,14,12,61.20
2018,12,20,14,13,56.30
2018,12,20,14,14,40.20
2018,12,20,14,15,53.10
2018,12,20,14,16,49.90
2018,12,20,14,17,49.90
2018,12,20,14,18,53.10
2018,12,20,14,19,53.10
2018,12,20,14,20,61.20
2018,12,20,14,21,74.00
2018,12,20,14,22,70.80
2018,12,20,14,23,66.00
2018,12,20,14,24,64.40
2018,12,20,14,25,54.70
2018,12,20,14,26,59.50
2018,12,20,14,27,53.10
2018,12,20,14,28,56.30
2018,12,20,14,29,62.70
2018,12,20,14,30,53.10
2018,12,20,14,31,64.40
2018,12,20,14,32,64.40
2018,12,20,14,33,43.50
2018,12,20,14,34,45.10
2018,12,20,14,35,59.50
2018,12,20,14,36,57.90
2018,12,20,14,37,70.80
2018,12,20,14,38,69.20
2018,12,20,14,39,53.10
2018,12,20,14,40,54.70
2018,12,20,14,41,51.50
2018,12,20,14,42,64.40
2018,12,20,14,43,48.30
2018,12,20,14,44,49.90
2018,12,20,14,45,62.70
2018,12,20,14,46,57.90
2018,12,20,14,47,56.30
2018,12,20,14,48,56.30
2018,12,20,14,49,53.10
2018,12,20,14,50,61.20
2018,12,20,14,51,48.30
2018,12,20,14,52,54.70
2018,12,20,14,53,57.90
2018,12,20,14,54,45.10
2018,12,20,14,55,53.10
2018,12,20,14,56,57.90
2018,12,20,14,57,46.70
2018,12,20,14,58,61.20
2018,12,20,14,59,51.50
2018,12,20,15,00,45.10
2018,12,20,15,01,54.70
2018,12,20,15,02,54.70
2018,12,20,15,03,53.10
2018,12,20,15,04,62.70
2018,12,20,15,05,53.10
2018,12,20,15,06,51.50
2018,12,20,15,07,37.00
2018,12,20,15,08,51.50
2018,12,20,15,09,62.70
2018,12,20,15,10,66.00
2018,12,20,15,11,54.70
2018,12,20,15,12,61.20
2018,12,20,15,13,54.70
2018,12,20,15,14,48.30
2018,12,20,15,15,51.50
2018,12,20,15,16,48.30
2018,12,20,15,17,53.10
2018,12,20,15,18,61.20
2018,12,20,15,19,33.80
2018,12,20,15,20,43.50
2018,12,20,15,21,54.70
2018,12,20,15,22,59.50
2018,12,20,15,23,46.70
2018,12,20,15,24,51.50
2018,12,20,15,25,53.10
2018,12,20,15,26,69.20
2018,12,20,15,27,77.30
2018,12,20,15,28,72.40
2018,12,20,15,29,72.40
2018,12,20,15,30,53.10
2018,12,20,15,31,53.10
2018,12,20,15,32,51.50
2018,12,20,15,33,54.70
2018,12,20,15,34,64.40
2018,12,20,15,35,72.40
2018,12,20,15,36,67.60
2018,12,20,15,37,53.10
2018,12,20,15,38,51.50
2018,12,20,15,39,45.10
2018,12,20,15,40,46.70
2018,12,20,15,41,45.10
2018,12,20,15,42,53.10
2018,12,20,15,43,49.90
2018,12,20,15,44,40.20
2018,12,20,15,45,43.50
2018,12,20,15,46,46.70
2018,12,20,15,47,46.70
2018,12,20,15,48,37.00
2018,12,20,15,49,38.60
2018,12,20,15,50,54.70
2018,12,20,15,51,41.80
2018,12,20,15,52,54.70
2018,12,20,15,53,43.50
2018,12,20,15,54,48.30
2018,12,20,15,55,43.50
2018,12,20,15,56,54.70
2018,12,20,15,57,49.90
2018,12,20,15,58,46.70
2018,12,20,15,59,46.70
2018,12,20,16,00,53.10
2018,12,20,16,01,38.60
2018,12,20,16,02,46.70
2018,12,20,16,03,48.30
2018,12,20,16,04,48.30
2018,12,20,16,05,46.70
2018,12,20,16,06,45.10
2018,12,20,16,07,51.50
2018,12,20,16,08,51.50
2018,12,20,16,09,53.10
2018,12,20,16,10,57.90
2018,12,20,16,11,64.40
2018,12,20,16,12,69.20
2018,12,20,16,13,64.40
2018,12,20,16,14,70.80
2018,12,20,16,15,74.00
2018,12,20,16,16,72.40
2018,12,20,16,17,66.00
2018,12,20,16,18,70.80
2018,12,20,16,19,64.40
2018,12,20,16,20,70.80
2018,12,20,16,21,74.00
2018,12,20,16,22,69.20
2018,12,20,16,23,67.60
2018,12,20,16,24,64.40
2018,12,20,16,25,74.00
2018,12,20,16,26,69.20
2018,12,20,16,27,64.40
2018,12,20,16,28,56.30
2018,12,20,16,29,57.90
2018,12,20,16,30,64.40
2018,12,20,16,31,53.10
2018,12,20,16,32,43.50
2018,12,20,16,33,38.60
2018,12,20,16,34,49.90
2018,12,20,16,35,51.50
2018,12,20,16,36,53.10
2018,12,20,16,37,49.90
2018,12,20,16,38,35.40
2018,12,20,16,39,35.40
2018,12,20,16,40,33.80
2018,12,20,16,41,35.40
2018,12,20,16,42,37.00
2018,12,20,16,43,35.40
2018,12,20,16,44,37.00
2018,12,20,16,45,37.00
2018,12,20,16,46,38.60
2018,12,20,16,47,33.80
2018,12,20,16,48,35.40
2018,12,20,16,49,27.40
2018,12,20,16,50,27.40
2018,12,20,16,51,35.40
2018,12,20,16,52,30.60
2018,12,20,16,53,29.00
2018,12,20,16,54,45.10
2018,12,20,16,55,43.50
2018,12,20,16,56,59.50
2018,12,20,16,57,40.20
2018,12,20,16,58,37.00
2018,12,20,16,59,33.80
2018,12,20,17,00,30.60
2018,12,20,17,01,37.00
2018,12,20,17,02,49.90
2018,12,20,17,03,32.20
2018,12,20,17,04,27.40
2018,12,20,17,05,24.20
2018,12,20,17,06,32.20
2018,12,20,17,07,30.60
2018,12,20,17,08,48.30
2018,12,20,17,09,38.60
2018,12,20,17,10,33.80
2018,12,20,17,11,29.00
2018,12,20,17,12,38.60
2018,12,20,17,13,53.10
2018,12,20,17,14,57.90
2018,12,20,17,15,51.50
2018,12,20,17,16,48.30
2018,12,20,17,17,29.00
2018,12,20,17,18,29.00
2018,12,20,17,19,46.70
2018,12,20,17,20,45.10
2018,12,20,17,21,38.60
2018,12,20,17,22,38.60
2018,12,20,17,23,29.00
2018,12,20,17,24,30.60
2018,12,20,17,25,49.90
2018,12,20,17,26,51.50
2018,12,20,17,27,38.60
2018,12,20,17,28,49.90
2018,12,20,17,29,64.40
2018,12,20,17,30,53.10
2018,12,20,17,31,40.20
2018,12,20,17,32,35.40
2018,12,20,17,33,33.80